BLOCK DM-SL R/B, 26452

Orbit data source: Space-Track

BLOCK DM-SL R/B, 26452 is space debris in HEO originally from a launch on Fri, 28 Jul 2000 UTC launched from the Sea Launch (SEAL). Debris objects in space refer to the collection of defunct objects orbiting the Earth. Examples of debris include non-operational satellites, rocket bodies, and fragments generated from explosions, collisions, or faulty payload assembly.

Loading next visibility...
Identifier
26452, 2000-043B
Orbit
HEO
Last TLE update
10 hours ago
Origin
Manufacturer
RKKE
Mission
Spacecraft
Bus & Motor
BLOK DM2, Unknown motor
Mass
~3,210 kg wet, ~3,210 kg dry
Launch date (UTC)
2000-07-28 (25 years ago)
Launch vehicle
Unknown
Launch site
Sea Launch (SEAL)
Object type
Payload
Rocket body
Debris
Shape & HBR
Cyl, 6.3 m
Radar Cross Section
23.684 m², Large (>1 m²)

Expand to show TLE details & history

TLE from 10 hours ago
0 BLOCK DM-SL R/B
1 26452U 00043B   25183.82015458 -.00000148  00000-0  00000-0 0  9992
2 26452   0.7959 198.5415 6721216  50.6143 126.1498  2.16746775197012
Epoch: 2025-07-02T19:41Z
TLE epoch observation values (Epoch: 2025-07-02T19:41:01.355Z)
Latitude
-0.46553°
Longitude
-162.0604°
Altitude
33,068.391 km
Speed
2.099 km/s
True Right ascension
03h 37m 09s
True Declination
0° 27' 54"
Sunlit
Object was in daylight at epoch
Visualization orbit readout
Latitude
-0.34264°
Longitude
-172.70745°
Altitude
28,683.842 km
Speed
2.633 km/s
Apparent Right ascension
03h 12m 51s
Apparent Declination
-6° 16' 03"
Sunlit
Object is in daylight
Visualization observer readout
Local Sidereal Time
17:32:00
Azimuth
52.187° ENE
Elevation
-44.123°
Doppler factor
1
Orbital elements
Apogee altitude
35,802.091 km
Perigee altitude
1,892.784 km
Semi-major axis
25,225.574 km
Eccentricity
0.67212
Inclination
0.7959°
RAAN
198.5415°
Arg. of periapsis
50.6143°
True anomaly
Unknown
Mean anomaly
126.1498°
Eccentric anomaly
Unknown
Mean motion
0.54173 °/min
Orbital period
664.54 mins
BSTAR
0
Loading maneuver chart data...
Loading SW <> Apogee altitude chart data...
Loading historical data...
Loading historical data...
Loading historical data...
Loading historical data...
Loading historical data...
Loading historical data...
Loading historical data...
Other satellites on launch #43 in the year 2000 (2000-07-28 UTC)

BLOCK DM-SL R/B Visibility forecast

Observer location: undefined°, undefined°

Span
Click to sort rows by Start time (UTC) header in descending order
Start Az.
Max El. time (UTC)
Max El. Az.
Max El.
End time (UTC)
End Az.
600 mins2025-07-03 14:44:26.606Z237.701° WSW2025-07-03 16:53:26.606Z216.904° SW29.713°2025-07-04 00:44:26.606Z171.713° S
|